Temp
14 14 13 13 13 13 12 11 12 12 12 12 11 11 11 10 11 12 13 13 12 12 13 13 13 13 9 5 3 3 2 1 0 0 0 -0 -0 -0 -1 -1 -1 -1 -1 -1 -1 -1 -1 -1 -1 -1 -1 -2 -2 -2 -2 -2 -2 -3 -3 -3 -3 -3 -3 -3 -3 -2 -2 -2 -1 -1 -0 -0 -0 1 2 3 4 4 5 6 6 7 7 7 7 8
14 13 12 13 12 11 11 11 13 13 12 12 11 11 11 11 11 12 12 12 12 11 11 11 11 9 4 2 2 2 1 0 0 -0 -0 -0 -0 -1 -1 -1 -1 -1 -1 -1 -1 -1 -1 -1 -1 -1 -1 -2 -2 -2 -2 -2 -3 -3 -3 -3 -3 -3 -3 -3 -3 -3 -3 -3 -3 -3 -2 -2 -1 -1 -0 0 1 2 2 4 4 5 5 6 6 7
13 12 12 12 11 11 11 11 12 12 11 11 10 11 11 10 11 11 12 12 11 10 10 11 10 5 1 1 1 1 0 0 0 -0 -0 -0 -1 -1 -1 -1 -1 -1 -1 -1 -1 -1 -1 -1 -1 -1 -1 -2 -2 -2 -2 -2 -3 -3 -3 -3 -3 -4 -4 -4 -4 -3 -3 -3 -3 -4 -3 -3 -2 -1 -1 -1 0 1 1 2 2 3 3 4 5 5
12 13 12 10 11 13 12 11 10 10 10 10 10 11 10 10 10 10 11 11 10 10 10 11 9 3 1 1 1 0 1 -0 0 -0 -1 -0 -1 -1 -1 -1 -1 -1 -1 -1 -2 -1 -1 -1 -1 -1 -2 -2 -2 -2 -2 -2 -3 -3 -3 -3 -3 -4 -4 -4 -4 -4 -3 -3 -3 -3 -3 -2 -2 -1 0 1 1 1 0 1 1 1 1 2 3 4
12 12 11 11 12 12 12 11 10 10 9 10 11 11 10 10 10 10 10 9 9 10 10 10 9 4 1 1 0 0 1 -0 -0 -0 -1 -1 -1 -1 -1 -1 -1 -1 -1 -1 -2 -2 -2 -1 -1 -1 -1 -2 -2 -2 -2 -2 -2 -3 -3 -3 -3 -4 -4 -4 -4 -4 -4 -3 -3 -3 -3 -2 -1 -1 -1 -1 -1 -2 -2 -1 -1 -0 -0 -1 0 2
12 11 11 12 12 10 11 11 10 9 9 9 11 11 10 9 9 9 8 8 8 9 10 9 9 5 0 0 1 -0 -0 -0 -0 -1 -1 -1 -1 -1 -1 -1 -1 -1 -1 -2 -2 -2 -2 -2 -1 -1 -1 -1 -2 -2 -2 -2 -2 -2 -2 -3 -3 -3 -4 -4 -4 -4 -4 -4 -4 -4 -4 -3 -3 -4 -4 -4 -5 -5 -5 -4 -3 -2 -1 -1 -1 -1
12 11 10 11 11 10 11 10 9 9 8 9 11 10 9 8 8 8 8 7 7 9 10 9 8 6 2 0 0 -0 -0 -0 -1 -1 -1 -1 -1 -1 -1 -1 -1 -1 -1 -2 -2 -2 -2 -2 -1 -1 -1 -1 -1 -1 -1 -2 -2 -2 -2 -2 -3 -3 -3 -4 -4 -4 -4 -4 -5 -4 -4 -5 -5 -5 -5 -5 -5 -5 -6 -6 -5 -4 -2 -2 -2 -2
12 12 11 11 11 10 10 9 10 9 8 9 10 9 8 8 8 8 8 7 7 8 9 9 8 8 4 0 0 1 -0 -0 -1 -1 -1 -1 -1 -1 -1 -1 -1 -1 -1 -1 -1 -2 -2 -2 -2 -1 -1 -1 -1 -1 -1 -1 -1 -2 -2 -2 -2 -3 -3 -3 -3 -4 -4 -4 -5 -5 -5 -5 -5 -5 -5 -5 -5 -5 -6 -6 -5 -5 -4 -3 -3 -3
11 12 12 11 10 9 9 10 10 9 9 10 10 8 8 8 8 8 7 7 7 7 7 9 8 8 4 1 1 1 0 -0 -1 -1 -1 -1 -1 -1 -1 -1 -1 -1 -1 -1 -2 -2 -2 -2 -1 -1 -1 -1 -1 -1 -1 -1 -1 -1 -1 -1 -2 -2 -3 -3 -3 -3 -4 -4 -4 -5 -5 -5 -5 -5 -5 -5 -5 -5 -5 -5 -6 -5 -5 -5 -4 -4
11 11 10 11 10 9 9 10 10 9 9 9 9 9 8 8 8 8 7 7 7 7 7 8 7 7 5 1 0 1 0 -1 -1 -1 -1 -0 -0 -0 -1 -1 -1 -2 -2 -2 -2 -2 -2 -2 -1 -1 -1 -1 -1 -1 -1 -1 -1 -1 -1 -1 -1 -2 -2 -3 -3 -3 -3 -4 -4 -5 -5 -5 -5 -6 -6 -6 -5 -5 -5 -5 -5 -5 -6 -6 -5 -5
10 10 10 10 9 9 10 9 10 10 9 9 9 8 7 7 8 8 8 7 7 7 7 7 6 6 5 1 -1 -0 -0 -1 -0 -1 -1 -0 -1 -1 -1 -2 -2 -2 -2 -2 -2 -2 -2 -2 -1 -1 -1 -1 -1 -1 -1 -1 -1 -1 -1 -1 -1 -2 -2 -3 -3 -3 -3 -3 -4 -4 -5 -5 -5 -5 -6 -6 -6 -6 -5 -5 -5 -5 -5 -6 -6 -6
10 10 10 10 9 9 9 8 9 10 9 8 8 7 6 6 7 7 7 7 5 5 6 6 6 6 4 1 -1 -1 -1 -1 -1 -1 -1 -1 -1 -2 -2 -2 -2 -2 -2 -2 -2 -2 -2 -2 -1 -1 -1 -1 -1 -1 -1 -1 -1 -1 -1 -2 -2 -2 -2 -2 -3 -3 -3 -3 -4 -4 -4 -5 -5 -5 -5 -6 -6 -6 -6 -6 -5 -5 -5 -5 -5 -6
10 9 10 10 9 9 8 7 8 8 8 7 6 5 4 4 4 4 5 5 4 5 6 6 6 5 2 0 -1 -1 -1 -1 -1 -2 -2 -2 -2 -2 -2 -2 -2 -2 -2 -2 -2 -2 -2 -2 -2 -1 -1 -1 -1 -1 -1 -1 -1 -1 -1 -2 -2 -2 -2 -2 -2 -3 -3 -3 -4 -4 -4 -4 -4 -5 -5 -6 -6 -6 -6 -6 -6 -6 -6 -5 -6 -6
9 9 9 10 9 8 7 6 6 6 6 6 5 5 4 3 2 2 3 3 3 4 5 5 5 3 1 0 -1 -1 -1 -2 -2 -2 -2 -2 -2 -2 -2 -2 -2 -2 -2 -2 -2 -3 -3 -2 -1 -1 -1 -1 -1 -1 -1 -1 -1 -1 -1 -2 -2 -2 -2 -2 -3 -3 -3 -3 -3 -3 -4 -4 -4 -4 -5 -5 -6 -6 -6 -6 -6 -6 -6 -6 -6 -6
9 9 8 8 8 8 7 6 6 6 6 6 6 5 4 3 2 2 2 2 2 2 3 4 4 2 1 0 -1 -1 -1 -2 -2 -2 -2 -2 -2 -2 -2 -2 -2 -2 -2 -2 -2 -3 -2 -1 -1 -1 -1 -1 -1 -1 -1 -1 -1 -1 -1 -2 -2 -2 -2 -2 -3 -3 -3 -3 -3 -3 -3 -4 -4 -4 -4 -4 -5 -5 -6 -6 -6 -6 -7 -7 -7 -6
8 9 8 8 8 7 7 7 7 6 5 5 6 5 3 3 3 2 3 3 2 1 2 3 3 1 0 -1 -1 -1 -1 -2 -2 -2 -2 -2 -2 -2 -2 -2 -2 -2 -2 -2 -2 -2 -2 -1 -1 -1 -1 -1 -1 -1 -1 -1 -1 -1 -2 -2 -2 -2 -2 -2 -3 -3 -3 -3 -3 -3 -3 -3 -4 -4 -4 -4 -4 -5 -5 -6 -6 -6 -6 -7 -7 -7
7 8 8 8 8 7 6 6 7 6 5 5 4 4 3 4 4 2 2 2 2 1 1 2 2 0 -0 -1 -2 -2 -1 -1 -1 -2 -2 -1 -1 -2 -2 -2 -1 -2 -2 -2 -2 -2 -2 -2 -1 -1 -1 -2 -2 -2 -2 -2 -2 -2 -2 -2 -2 -2 -2 -2 -3 -3 -3 -3 -3 -4 -3 -3 -3 -4 -4 -4 -5 -5 -5 -5 -5 -6 -6 -6 -7 -7
6 7 7 6 7 7 6 6 6 6 5 4 3 4 4 4 4 2 1 1 0 -0 1 2 1 1 0 -1 -2 -2 -1 -1 -1 -1 -1 -1 -1 -2 -2 -1 -1 -1 -2 -2 -2 -2 -2 -2 -2 -2 -2 -2 -2 -2 -2 -2 -2 -2 -2 -2 -2 -2 -2 -2 -3 -3 -3 -3 -3 -4 -4 -4 -4 -4 -4 -4 -4 -5 -5 -5 -5 -5 -5 -6 -6 -7
5 7 7 6 6 7 6 6 5 4 5 4 4 4 4 2 2 2 1 -0 -1 -1 -0 1 1 0 1 0 -1 -2 -2 -2 -1 -1 -1 -2 -2 -2 -2 -2 -2 -2 -2 -2 -2 -3 -2 -2 -2 -2 -3 -3 -3 -3 -3 -3 -3 -3 -3 -3 -3 -3 -3 -3 -3 -3 -3 -3 -3 -3 -4 -4 -4 -4 -4 -4 -4 -4 -5 -5 -5 -5 -5 -6 -6 -6
5 6 7 6 6 6 6 5 3 3 4 4 3 3 3 2 1 1 1 0 -0 -1 -1 -1 -1 -0 1 1 -1 -1 -1 -1 -1 -1 -2 -2 -2 -2 -2 -2 -2 -2 -2 -2 -2 -3 -3 -3 -3 -3 -3 -3 -3 -3 -3 -3 -3 -3 -3 -3 -4 -4 -4 -4 -4 -4 -3 -3 -3 -4 -4 -4 -4 -4 -4 -5 -5 -5 -5 -5 -5 -5 -6 -6 -6 -6
5 6 6 6 6 5 6 5 3 2 3 2 2 2 2 2 1 0 0 1 -0 -1 -2 -2 -2 -0 1 -0 -1 -1 -1 -1 -1 -2 -2 -2 -2 -2 -2 -2 -2 -2 -2 -2 -3 -3 -3 -3 -3 -3 -4 -4 -4 -4 -4 -4 -4 -4 -4 -4 -4 -5 -5 -5 -5 -5 -4 -4 -4 -4 -4 -4 -4 -4 -4 -5 -5 -5 -5 -5 -5 -5 -6 -6 -6 -6
5 5 4 4 4 5 5 4 3 3 3 3 2 2 2 1 1 -1 -1 0 0 -1 -1 -2 -3 -1 0 -1 -1 -1 -1 -1 -1 -2 -3 -3 -3 -3 -3 -2 -2 -3 -3 -3 -3 -4 -4 -4 -4 -4 -4 -4 -4 -4 -4 -4 -5 -5 -5 -5 -5 -6 -6 -6 -6 -6 -5 -5 -5 -5 -5 -5 -5 -5 -5 -5 -5 -6 -6 -6 -6 -6 -6 -6 -6 -7
4 4 3 4 4 5 5 4 3 3 4 3 2 2 1 1 0 -1 -1 -1 -1 -1 -1 -2 -3 -2 -1 -2 -1 -1 -1 -1 -2 -2 -3 -3 -3 -3 -3 -3 -3 -3 -3 -4 -4 -4 -4 -4 -4 -5 -5 -5 -5 -5 -5 -5 -5 -6 -6 -6 -6 -6 -6 -6 -6 -6 -6 -6 -6 -6 -6 -6 -6 -6 -6 -6 -6 -6 -6 -6 -6 -6 -6 -7 -7 -7
5 4 3 3 3 3 4 4 3 3 3 3 1 1 1 1 1 -0 -1 -2 -2 -2 -2 -3 -3 -1 -2 -2 -2 -1 -2 -2 -3 -3 -2 -3 -3 -3 -3 -3 -3 -3 -4 -4 -4 -4 -4 -5 -5 -5 -5 -5 -5 -5 -5 -6 -6 -6 -6 -7 -7 -7 -7 -7 -7 -7 -7 -7 -7 -7 -7 -6 -6 -6 -6 -6 -6 -6 -6 -7 -7 -7 -7 -7 -7 -7
5 4 3 3 2 2 3 3 3 3 2 1 1 1 1 0 -0 -1 -2 -2 -3 -2 -2 -3 -3 -1 -1 -3 -2 -2 -2 -2 -2 -2 -2 -3 -3 -3 -3 -3 -4 -4 -4 -4 -4 -4 -5 -5 -6 -6 -6 -6 -6 -6 -6 -6 -7 -7 -7 -7 -7 -7 -7 -7 -7 -8 -8 -8 -7 -7 -7 -7 -7 -7 -7 -7 -7 -8 -8 -8 -8 -8 -8 -8 -8 -8
5 4 3 2 2 2 2 2 2 2 1 1 1 0 -0 -1 -1 -1 -2 -3 -3 -2 -2 -3 -2 -1 -1 -1 -2 -2 -2 -3 -2 -2 -3 -3 -3 -3 -4 -4 -4 -4 -4 -5 -5 -5 -6 -6 -6 -6 -6 -6 -6 -6 -6 -7 -7 -8 -8 -8 -8 -8 -8 -8 -8 -8 -8 -8 -8 -8 -8 -8 -8 -8 -9 -9 -9 -9 -10 -10 -9 -10 -10 -9 -9 -9
4 3 2 2 2 2 1 2 2 2 0 0 0 -0 -0 -1 -2 -2 -2 -3 -3 -3 -3 -3 -2 -2 -2 -1 -2 -2 -3 -3 -3 -3 -3 -4 -4 -4 -4 -4 -4 -5 -5 -5 -5 -6 -6 -6 -6 -6 -7 -7 -7 -7 -7 -7 -8 -8 -8 -8 -8 -8 -8 -8 -9 -9 -9 -9 -9 -9 -9 -9 -10 -10 -10 -10 -10 -10 -11 -11 -10 -11 -10 -10 -10 -10
3 2 2 2 2 2 2 1 1 1 -0 -1 -0 -1 -0 -1 -2 -2 -2 -2 -2 -3 -4 -2 -2 -3 -3 -2 -3 -3 -3 -3 -3 -4 -4 -4 -4 -4 -4 -5 -5 -5 -5 -5 -6 -6 -7 -7 -7 -7 -7 -7 -7 -7 -7 -8 -8 -9 -9 -9 -9 -9 -9 -9 -9 -10 -10 -10 -10 -10 -10 -10 -10 -11 -11 -11 -11 -11 -11 -11 -11 -11 -11 -11 -11 -11
3 2 1 1 0 1 1 0 0 -0 -1 -0 -0 -1 -1 -1 -2 -2 -2 -2 -3 -3 -3 -2 -2 -4 -4 -3 -3 -3 -3 -4 -4 -4 -4 -4 -5 -5 -5 -5 -5 -6 -6 -6 -6 -7 -7 -7 -7 -7 -7 -8 -8 -8 -8 -8 -9 -9 -9 -9 -9 -9 -9 -10 -10 -10 -10 -10 -10 -11 -11 -11 -11 -11 -11 -11 -11 -12 -12 -12 -12 -12 -12 -12 -12 -11
2 2 1 -0 -0 -0 -0 -0 -0 -1 -1 -1 -1 -1 -1 -1 -2 -2 -2 -3 -3 -3 -3 -3 -4 -5 -4 -4 -4 -3 -3 -4 -4 -4 -5 -5 -5 -5 -5 -6 -6 -6 -6 -7 -7 -7 -8 -8 -8 -8 -8 -8 -8 -8 -9 -9 -9 -9 -10 -10 -10 -10 -10 -10 -11 -11 -11 -11 -11 -11 -12 -12 -12 -12 -12 -12 -12 -12 -12 -12 -12 -12 -12 -12 -12 -12
2 2 0 -1 -1 -0 -0 0 0 -0 -1 -1 -2 -2 -2 -2 -2 -3 -3 -4 -4 -4 -4 -4 -5 -5 -4 -3 -3 -4 -4 -5 -5 -5 -5 -5 -5 -5 -6 -6 -6 -6 -7 -7 -8 -8 -8 -8 -8 -8 -8 -8 -9 -9 -9 -10 -10 -10 -10 -10 -10 -11 -11 -11 -11 -12 -12 -12 -12 -12 -12 -12 -13 -13 -13 -13 -13 -13 -13 -13 -13 -13 -13 -13 -13 -12
2 1 -0 -1 -1 0 -0 -0 -1 -1 -2 -3 -3 -2 -2 -3 -3 -3 -3 -3 -4 -5 -5 -6 -6 -5 -4 -3 -4 -5 -5 -5 -5 -5 -5 -5 -5 -6 -6 -6 -7 -7 -8 -8 -8 -8 -8 -8 -8 -8 -9 -9 -9 -10 -10 -10 -10 -11 -11 -11 -11 -11 -12 -12 -12 -12 -12 -13 -13 -13 -13 -13 -13 -13 -14 -14 -14 -14 -13 -13 -13 -13 -13 -13 -13 -13
1 1 0 -1 -0 1 -0 -2 -2 -2 -1 0 -0 -0 -1 -2 -2 -3 -3 -4 -4 -5 -5 -6 -5 -4 -3 -4 -5 -5 -5 -6 -6 -5 -5 -5 -6 -6 -6 -7 -7 -8 -8 -8 -8 -8 -8 -9 -9 -9 -10 -10 -10 -11 -11 -11 -11 -11 -12 -12 -12 -12 -12 -13 -13 -13 -13 -13 -13 -13 -14 -14 -14 -14 -14 -14 -14 -14 -14 -14 -14 -14 -13 -13 -13 -13
-1 1 0 -2 -0 1 -1 -2 -2 -1 2 3 1 -0 -1 -1 -2 -3 -4 -4 -4 -5 -5 -5 -5 -4 -4 -5 -6 -6 -6 -6 -5 -5 -5 -6 -6 -6 -6 -7 -7 -8 -8 -8 -8 -9 -9 -9 -9 -10 -11 -11 -11 -11 -11 -12 -12 -12 -12 -13 -13 -13 -13 -13 -13 -14 -14 -14 -14 -14 -14 -14 -14 -14 -14 -14 -14 -15 -14 -14 -14 -14 -14 -14 -14 -14
-1 -0 -1 -2 -2 -1 -2 -2 -0 2 4 2 -1 -2 -2 -2 -3 -4 -5 -5 -5 -5 -5 -5 -5 -5 -5 -5 -6 -6 -6 -5 -5 -5 -5 -6 -6 -6 -7 -7 -8 -8 -8 -8 -9 -9 -9 -9 -10 -11 -11 -11 -11 -12 -12 -12 -12 -13 -13 -13 -13 -14 -14 -14 -14 -14 -14 -15 -15 -15 -15 -15 -15 -14 -15 -15 -15 -15 -15 -15 -15 -15 -15 -15 -15 -15
1 -0 -1 -2 -2 -2 -1 -2 -0 2 2 -1 -3 -3 -3 -4 -4 -4 -4 -4 -4 -4 -4 -5 -5 -5 -6 -6 -6 -6 -5 -6 -6 -6 -6 -6 -6 -6 -7 -8 -8 -8 -9 -9 -9 -9 -9 -10 -11 -12 -12 -12 -12 -12 -12 -13 -13 -13 -14 -14 -14 -14 -14 -14 -15 -15 -15 -15 -15 -15 -15 -15 -15 -15 -15 -15 -16 -16 -16 -15 -15 -15 -15 -15 -15 -15
1 -0 -1 -1 -2 -2 -1 -2 -2 -1 -0 -1 -2 -3 -3 -3 -3 -4 -4 -4 -3 -4 -5 -5 -5 -6 -6 -6 -6 -6 -6 -7 -7 -7 -6 -6 -6 -7 -7 -8 -8 -9 -9 -9 -9 -9 -10 -11 -12 -12 -12 -12 -12 -12 -13 -13 -14 -14 -14 -15 -15 -15 -15 -15 -15 -16 -16 -16 -16 -15 -15 -15 -15 -16 -16 -16 -16 -16 -16 -16 -16 -16 -16 -16 -16 -16
-0 -1 -0 -0 -1 -2 -2 -2 -3 -2 1 1 -1 -3 -3 -3 -3 -4 -5 -5 -4 -3 -5 -5 -5 -6 -6 -6 -6 -6 -7 -8 -8 -7 -6 -6 -7 -7 -7 -8 -8 -9 -9 -9 -9 -10 -11 -11 -12 -12 -12 -12 -12 -13 -14 -14 -14 -15 -15 -15 -15 -15 -16 -16 -16 -16 -16 -16 -16 -16 -16 -16 -16 -16 -16 -17 -17 -17 -17 -17 -17 -17 -17 -16 -16 -16
-1 -2 -2 -1 -1 -2 -2 -2 -3 -2 0 1 -1 -3 -4 -4 -4 -4 -6 -5 -3 -4 -5 -5 -5 -6 -6 -6 -6 -7 -8 -9 -8 -7 -7 -7 -7 -8 -8 -9 -9 -9 -10 -10 -10 -10 -11 -12 -12 -12 -13 -13 -13 -14 -14 -14 -15 -15 -15 -15 -15 -16 -16 -16 -16 -16 -16 -16 -16 -16 -16 -16 -16 -17 -17 -17 -17 -18 -18 -18 -18 -17 -17 -17 -17 -17
-2 -2 -2 -2 -1 -2 -3 -3 -3 -3 -2 -1 -1 -3 -4 -4 -4 -5 -5 -3 -3 -5 -5 -5 -5 -6 -6 -6 -7 -7 -8 -9 -8 -7 -7 -7 -8 -8 -9 -9 -9 -10 -10 -10 -10 -11 -12 -12 -13 -13 -13 -13 -14 -14 -15 -15 -15 -15 -15 -16 -16 -17 -17 -17 -17 -17 -16 -16 -16 -16 -17 -17 -17 -17 -17 -18 -18 -18 -18 -18 -18 -18 -17 -17 -17 -17
-1 -2 -3 -3 -2 -4 -4 -4 -4 -3 -1 -1 -2 -3 -5 -5 -5 -5 -4 -2 -3 -6 -5 -5 -6 -6 -6 -6 -7 -7 -8 -7 -7 -7 -7 -7 -8 -8 -9 -9 -10 -10 -10 -10 -11 -11 -12 -13 -13 -13 -13 -14 -14 -15 -15 -15 -16 -16 -16 -16 -17 -17 -17 -17 -17 -17 -17 -16 -17 -17 -17 -17 -17 -18 -18 -18 -18 -18 -18 -18 -18 -18 -18 -17 -17 -17
-1 -2 -4 -4 -3 -4 -4 -4 -4 -3 -1 -1 -3 -4 -5 -4 -4 -3 -2 -2 -3 -5 -5 -6 -6 -6 -6 -7 -7 -7 -7 -7 -7 -8 -8 -8 -9 -9 -10 -10 -10 -10 -10 -11 -11 -12 -13 -13 -13 -14 -14 -14 -15 -15 -16 -16 -16 -16 -16 -17 -17 -17 -17 -17 -17 -17 -17 -17 -17 -17 -17 -18 -18 -18 -18 -18 -19 -19 -19 -19 -18 -18 -18 -18 -17 -17
-0 -0 -1 -3 -3 -4 -5 -6 -3 0 0 -3 -4 -4 -4 -4 -1 -1 -2 -3 -4 -4 -5 -6 -6 -6 -6 -7 -7 -8 -8 -8 -8 -8 -9 -9 -9 -10 -10 -10 -11 -11 -11 -11 -12 -13 -13 -14 -14 -14 -14 -15 -16 -16 -16 -16 -16 -16 -17 -17 -17 -17 -17 -17 -17 -17 -17 -17 -18 -18 -18 -18 -18 -19 -19 -19 -19 -19 -19 -18 -18 -18 -18 -18 -18 -17
-1 0 1 -1 -2 -2 -3 -3 0 3 0 -3 -2 -0 -2 -3 -1 -1 -2 -3 -4 -5 -5 -6 -6 -6 -6 -7 -8 -8 -8 -9 -9 -9 -9 -10 -10 -11 -11 -11 -11 -11 -12 -12 -13 -13 -14 -14 -14 -15 -15 -16 -16 -16 -16 -17 -17 -17 -17 -17 -17 -17 -18 -18 -17 -17 -18 -18 -18 -18 -19 -19 -19 -20 -20 -20 -19 -19 -19 -19 -18 -18 -18 -18 -18 -18
0 0 1 1 -1 -1 -0 1 1 1 -1 -4 -3 -0 -1 -2 -2 -2 -3 -4 -5 -5 -5 -6 -6 -6 -7 -7 -8 -9 -9 -9 -9 -9 -10 -10 -11 -11 -11 -12 -12 -12 -12 -13 -14 -14 -14 -15 -15 -15 -16 -16 -17 -17 -17 -17 -17 -17 -18 -17 -18 -18 -18 -18 -18 -18 -18 -18 -19 -19 -19 -20 -20 -20 -20 -20 -19 -19 -19 -19 -19 -19 -19 -18 -18 -18
-0 -2 -2 -0 -0 -1 -1 1 -0 -1 -0 -2 -3 -2 -1 -2 -2 -3 -4 -4 -5 -5 -5 -6 -6 -7 -7 -8 -9 -9 -9 -9 -10 -10 -10 -11 -11 -12 -12 -12 -12 -13 -13 -14 -14 -14 -15 -15 -15 -16 -17 -17 -17 -17 -17 -18 -18 -18 -18 -18 -18 -18 -18 -18 -18 -18 -19 -19 -19 -20 -20 -20 -21 -21 -20 -20 -20 -19 -19 -19 -19 -19 -19 -19 -18 -18
-1 -3 -2 -1 -1 -2 -0 1 -0 -1 0 -1 -1 -1 -2 -2 -2 -3 -4 -4 -5 -5 -5 -6 -7 -7 -8 -9 -9 -10 -10 -10 -10 -11 -11 -12 -12 -12 -13 -13 -13 -14 -14 -15 -15 -15 -15 -16 -16 -17 -17 -18 -18 -18 -18 -18 -18 -18 -18 -18 -18 -18 -18 -18 -18 -19 -19 -20 -20 -20 -20 -21 -21 -21 -21 -20 -20 -20 -20 -19 -19 -19 -19 -19 -19 -18
-1 -2 -2 -2 -2 -2 -0 0 -1 -1 -1 -2 -2 -2 -2 -3 -3 -4 -4 -4 -5 -6 -7 -7 -8 -8 -9 -9 -9 -9 -10 -10 -11 -11 -12 -13 -13 -13 -13 -13 -14 -15 -15 -15 -15 -16 -16 -16 -17 -17 -18 -18 -18 -18 -18 -19 -18 -18 -18 -18 -18 -18 -18 -18 -19 -20 -20 -20 -20 -21 -21 -21 -21 -21 -21 -21 -20 -20 -20 -20 -20 -20 -19 -19 -19 -18
-2 -2 -2 -2 -3 -3 -2 -1 -1 -1 -1 -1 -2 -2 -2 -2 -3 -4 -5 -5 -6 -7 -7 -8 -9 -8 -9 -9 -9 -10 -10 -11 -12 -12 -13 -13 -13 -13 -13 -14 -15 -15 -15 -16 -16 -16 -16 -17 -17 -18 -18 -18 -19 -19 -19 -19 -19 -19 -19 -19 -19 -19 -19 -19 -20 -20 -20 -20 -21 -21 -21 -22 -21 -21 -21 -21 -21 -21 -20 -20 -20 -20 -19 -19 -19 -18
-3 -1 -2 -3 -2 -2 -1 1 1 1 1 1 -0 -1 -1 -3 -4 -4 -5 -6 -6 -7 -7 -8 -9 -9 -9 -9 -9 -10 -11 -12 -12 -13 -13 -14 -14 -13 -14 -15 -15 -16 -16 -16 -16 -16 -17 -17 -18 -18 -19 -19 -19 -19 -19 -19 -19 -19 -19 -19 -19 -19 -20 -20 -20 -21 -21 -21 -21 -22 -22 -22 -22 -22 -22 -22 -21 -21 -21 -21 -21 -20 -20 -19 -19 -19
-1 0 -1 -2 -0 1 2 2 1 0 1 1 0 -0 -2 -3 -4 -5 -5 -6 -6 -7 -8 -8 -9 -10 -10 -10 -10 -11 -12 -12 -13 -13 -14 -14 -14 -14 -14 -15 -16 -16 -16 -17 -17 -17 -17 -18 -18 -18 -19 -19 -19 -19 -19 -19 -19 -19 -19 -20 -20 -20 -20 -20 -21 -21 -21 -21 -22 -22 -22 -22 -22 -22 -22 -22 -22 -21 -21 -22 -22 -21 -21 -20 -20 -19
Height
831 835 842 843 843 844 845 847 845 845 846 843 844 846 846 846 838 832 827 821 825 822 813 816 816 813 829 848 855 856 855 858 862 863 863 864 864 864 864 863 864 863 863 862 860 858 856 853 852 849 847 845 842 840 838 836 833 831 828 824 821 819 815 810 806 803 801 797 795 794 793 793 793 791 789 788 788 788 789 788 789 789 789 790 791 791
834 841 847 845 846 848 849 848 844 843 844 843 845 844 843 844 835 829 827 824 827 826 820 818 819 832 853 862 862 862 862 866 869 868 868 869 868 868 868 867 867 866 865 863 861 859 858 855 853 851 848 846 843 842 840 838 836 834 831 828 826 823 819 816 813 810 809 807 805 803 801 800 798 794 793 793 792 791 790 788 788 789 790 791 792 792
840 845 848 848 849 850 850 849 846 845 846 845 846 846 844 844 838 829 823 823 830 832 824 815 824 856 872 869 870 870 870 874 873 873 873 873 872 871 871 871 869 869 866 865 863 861 859 857 855 852 850 848 846 845 843 840 838 835 833 831 829 826 823 821 818 815 814 812 810 808 805 802 800 797 796 797 795 793 791 789 788 788 789 790 791 792
847 848 848 852 850 844 846 851 851 850 850 849 848 847 847 846 845 837 824 823 830 831 827 818 828 865 879 872 876 877 875 878 876 876 877 875 876 875 874 874 872 871 869 867 865 863 861 858 856 854 852 850 848 846 844 842 840 837 835 834 832 830 827 825 822 820 818 815 812 810 807 805 802 798 797 797 794 792 793 792 790 789 789 790 791 791
850 850 850 852 849 846 847 850 853 854 855 855 849 847 849 846 846 846 838 834 830 823 824 824 828 860 882 878 880 882 878 880 880 878 879 877 878 877 876 875 873 872 871 869 867 864 862 860 857 856 854 852 850 847 846 844 842 840 838 836 834 832 830 828 826 823 820 817 813 810 805 802 799 796 796 796 795 794 796 796 793 792 791 791 791 790
851 853 851 848 849 852 851 851 857 858 859 858 848 847 852 850 849 849 847 847 842 827 821 826 834 859 885 884 882 886 883 883 883 881 882 881 879 878 876 876 875 873 872 870 868 866 863 861 859 857 855 853 851 849 848 846 844 842 840 838 836 834 832 830 828 825 822 819 815 811 806 804 803 803 803 805 804 801 802 802 799 796 794 793 793 791
850 853 853 851 851 854 854 856 859 859 862 859 848 848 854 854 852 849 847 852 853 837 823 830 842 853 875 887 885 886 885 885 886 883 884 883 880 880 878 877 875 873 872 870 868 866 864 862 860 858 856 854 853 851 849 847 845 843 840 838 837 835 833 831 829 826 823 821 819 817 815 814 814 813 812 812 811 807 808 808 803 798 795 793 795 794
853 850 851 853 854 856 860 862 859 860 864 857 848 852 855 853 850 847 850 854 852 844 832 832 837 839 861 885 885 882 885 886 886 886 885 884 882 881 879 878 876 874 873 871 869 867 865 863 861 859 858 856 854 853 850 848 846 843 841 839 837 836 834 832 830 827 825 823 822 821 820 820 819 819 817 815 813 811 812 810 804 798 795 794 795 797
856 852 853 854 858 863 865 864 861 862 862 855 851 855 854 851 850 846 850 851 848 849 842 832 834 840 859 882 882 878 885 888 888 888 886 884 883 881 880 878 877 876 874 872 870 868 866 865 863 861 859 857 855 853 851 849 847 844 842 840 838 837 835 833 830 828 825 824 823 822 822 822 822 821 820 818 816 815 814 811 803 798 796 795 796 799
858 857 859 858 863 868 866 864 861 861 861 858 855 854 852 851 849 846 848 849 846 847 845 841 845 848 860 882 887 881 885 889 889 889 887 884 883 882 881 879 878 877 875 873 871 869 867 865 863 861 859 858 856 854 852 849 847 845 843 841 839 837 835 833 831 828 826 824 823 822 821 821 821 821 821 819 818 816 812 807 801 797 797 797 798 801
861 859 861 862 866 867 865 865 862 860 862 861 858 856 855 852 846 845 846 847 850 850 846 848 853 852 861 883 894 890 890 891 888 887 886 884 884 883 882 881 879 877 875 874 871 869 867 865 863 861 859 857 855 853 852 849 847 845 843 841 839 838 836 833 831 829 827 825 823 822 821 820 819 818 817 816 814 812 809 804 799 797 798 800 801 803
862 859 861 865 869 867 866 869 864 862 863 864 864 864 865 859 850 850 848 849 863 863 851 849 851 853 866 883 893 894 892 889 888 888 888 886 885 884 883 881 879 878 875 874 871 869 866 863 861 859 857 856 854 852 851 849 847 845 843 841 839 838 836 834 832 829 827 825 824 823 822 820 819 817 815 814 812 810 808 806 804 803 802 803 804 804
865 867 868 865 867 869 871 873 868 865 866 867 869 871 876 875 869 869 865 866 874 863 851 853 853 859 875 887 891 892 890 890 890 890 890 889 887 885 883 881 878 876 875 872 871 868 865 862 859 857 856 854 853 851 850 848 847 845 843 841 839 838 836 834 833 830 827 826 824 823 822 821 819 818 816 815 814 812 811 810 810 810 810 809 807 805
869 871 872 867 870 872 874 879 877 873 872 873 875 877 884 892 897 897 886 882 883 867 857 858 856 867 883 886 889 891 891 892 892 891 890 888 887 884 881 879 877 874 873 871 869 867 864 861 859 857 855 854 852 851 849 848 846 844 842 840 838 836 835 834 832 831 829 827 825 823 821 820 819 818 817 815 814 814 813 812 812 812 811 810 808 805
873 872 875 874 878 877 876 881 882 878 878 878 878 882 888 895 907 909 897 896 898 883 871 863 860 875 886 884 888 891 890 892 891 890 889 886 884 883 879 877 875 873 871 870 868 866 863 860 858 857 855 854 852 851 849 847 845 842 840 838 837 835 834 833 831 830 829 827 826 824 822 820 818 817 816 815 814 813 812 812 811 810 809 808 806 804
879 875 877 876 878 880 879 880 878 878 882 881 879 885 893 893 897 901 896 896 900 894 883 875 874 882 887 886 888 889 889 890 890 888 887 885 882 880 878 875 873 871 870 868 867 865 863 860 859 857 856 854 852 850 848 845 843 840 838 837 836 834 833 832 831 830 828 827 826 824 822 820 818 816 815 814 813 813 812 810 809 808 807 806 804 803
887 879 877 877 877 879 883 881 879 883 886 886 887 892 893 887 888 898 900 894 898 902 891 879 881 885 886 888 888 889 889 887 887 887 884 882 880 877 876 873 871 870 868 868 867 865 862 860 859 857 856 854 852 849 847 845 842 839 837 837 836 835 833 832 830 829 827 826 825 823 821 819 818 816 814 812 812 811 811 810 809 807 806 805 803 802
895 885 879 884 880 877 883 883 882 886 887 891 897 893 888 885 887 900 911 907 907 910 893 876 881 885 883 887 889 889 889 887 885 885 882 880 878 876 875 872 870 869 868 868 866 864 863 860 859 857 856 854 851 849 847 845 843 840 838 838 836 835 833 831 829 828 826 825 823 821 820 818 816 814 813 811 810 809 809 808 808 807 805 804 803 801
896 886 879 884 882 878 880 883 887 889 887 891 895 891 891 898 901 903 912 915 915 914 899 882 885 886 878 880 887 887 888 887 884 881 880 879 877 876 874 872 870 869 868 867 865 864 862 860 859 857 855 854 851 849 847 845 843 841 840 838 837 835 832 830 828 826 825 823 821 820 818 816 814 812 811 810 809 808 807 806 806 805 804 803 801 800
896 889 880 879 882 882 878 884 896 897 890 888 891 893 894 901 907 907 908 910 913 917 909 895 891 885 875 876 883 884 883 882 880 879 879 878 876 875 874 872 871 869 868 866 865 863 861 860 859 856 855 854 852 850 848 846 843 841 840 838 835 833 831 829 827 825 824 822 820 819 816 815 812 810 809 808 807 806 805 805 803 803 802 801 800 798
897 895 888 880 883 886 884 889 900 900 895 894 896 900 900 900 903 906 904 902 909 918 918 909 897 880 873 878 881 879 879 879 878 878 878 877 875 874 873 872 870 868 867 866 864 863 861 859 858 856 855 853 851 850 847 845 843 841 839 837 834 832 830 828 826 825 823 821 819 818 815 813 811 808 807 806 805 805 804 803 802 801 800 799 797 797
898 900 900 894 891 889 887 891 896 896 896 898 900 901 902 905 907 914 913 903 905 913 913 914 902 878 871 879 878 876 878 876 877 877 877 876 874 872 871 870 869 867 866 865 864 862 861 859 857 855 854 852 850 849 846 844 842 840 838 836 833 831 829 827 825 824 822 820 818 815 813 811 809 807 806 805 804 803 802 801 801 800 798 796 795 794
900 903 905 901 896 890 886 888 894 894 891 894 901 902 904 909 911 918 919 908 909 912 907 911 905 880 873 878 875 876 877 875 876 877 875 874 871 870 869 867 867 866 865 864 863 861 859 857 856 854 853 851 849 847 845 843 841 839 837 835 833 831 829 827 825 822 820 817 815 812 810 808 807 806 805 803 802 801 800 799 797 797 795 794 793 792
898 905 906 901 898 894 887 889 893 892 891 897 903 903 904 907 907 912 917 915 918 914 908 914 904 876 872 879 875 875 877 876 877 875 873 872 869 868 867 866 865 864 863 862 860 859 857 855 854 853 851 849 847 845 843 841 839 837 835 833 832 830 827 825 823 820 817 815 812 811 809 807 806 805 803 801 800 798 797 796 794 793 792 790 789 789
898 905 909 907 906 900 892 893 894 892 896 903 904 904 905 906 909 913 916 919 919 909 906 915 900 871 869 878 876 875 876 874 873 872 870 870 868 866 865 864 864 862 860 860 858 856 855 853 852 851 849 847 845 843 841 838 836 834 832 831 829 826 824 822 819 817 815 813 812 810 809 807 805 804 802 800 798 796 794 793 791 790 789 788 786 785
898 905 910 914 917 913 907 904 900 897 901 901 900 905 907 908 911 911 913 921 918 907 906 910 894 869 864 871 871 871 873 871 869 869 869 868 866 865 864 862 861 860 858 856 854 853 852 851 850 848 846 845 842 840 838 835 833 832 830 828 826 824 822 819 817 815 813 812 811 809 808 806 804 802 800 797 795 794 792 790 789 787 786 785 783 781
903 908 909 912 915 915 912 908 902 903 907 904 901 903 904 907 911 912 917 919 912 908 906 899 891 879 867 867 870 870 870 869 866 867 867 866 865 864 862 860 858 857 856 853 851 850 849 848 847 845 844 842 839 837 835 833 831 829 827 825 823 822 820 817 815 813 812 810 808 807 805 804 802 800 797 795 793 791 789 787 786 784 783 781 779 778
905 908 908 911 911 909 907 906 904 907 910 906 902 902 899 903 909 912 912 907 904 910 901 881 883 887 873 867 872 872 869 866 865 866 866 864 864 861 859 858 856 854 852 850 849 848 847 846 844 842 840 838 836 834 831 830 829 827 825 822 821 819 817 815 813 811 809 807 805 804 802 800 799 797 794 792 790 788 786 784 783 781 780 778 776 773
905 907 911 915 914 911 910 908 906 907 908 903 900 900 899 901 905 905 903 900 903 907 892 872 879 887 875 870 873 871 868 866 865 865 864 862 861 859 857 855 854 852 849 848 847 847 845 844 841 840 838 835 832 830 829 828 826 824 822 820 818 816 814 812 810 808 806 804 802 801 799 797 796 794 792 789 787 785 783 781 779 777 776 774 772 769
904 904 911 916 914 912 910 907 906 906 906 902 899 898 898 898 899 898 897 899 901 898 887 881 885 883 873 871 871 868 866 866 864 863 862 860 858 856 854 853 851 849 847 846 846 845 843 842 840 837 835 832 830 829 827 826 824 822 819 817 815 813 811 809 807 805 803 801 800 798 796 794 792 790 788 786 784 782 780 777 775 773 771 770 767 765
903 904 913 918 914 906 903 903 902 901 903 902 898 897 898 898 897 898 897 898 899 896 890 891 892 880 867 866 867 866 866 865 864 862 860 857 855 853 852 851 848 846 846 845 844 843 841 839 837 835 833 830 829 828 826 823 821 819 817 814 812 810 809 807 805 803 801 799 797 795 793 791 789 787 785 783 781 778 776 774 772 770 768 766 764 762
904 907 914 920 914 901 899 903 903 903 906 904 900 896 896 896 894 894 893 892 894 894 893 896 893 876 862 862 865 865 865 864 862 860 858 854 853 852 850 848 846 845 844 843 842 840 838 836 834 832 830 829 828 826 824 821 819 816 814 812 810 808 807 805 803 800 798 796 794 792 790 788 786 784 782 780 777 775 773 771 769 767 765 763 761 759
908 906 910 920 912 896 898 906 908 905 893 881 881 883 883 887 888 888 889 888 888 891 893 890 880 865 860 864 866 864 863 863 860 856 855 852 850 849 848 846 844 844 843 841 839 837 835 833 832 830 829 828 826 824 822 820 817 814 812 810 808 806 804 802 800 798 795 793 791 789 787 785 783 781 779 777 775 773 771 769 766 764 762 760 758 757
912 906 910 920 911 896 899 905 903 890 867 857 869 877 877 881 884 885 886 885 884 885 884 879 869 862 863 864 864 864 862 859 857 853 851 851 849 847 845 844 844 842 840 838 837 835 833 831 829 828 827 826 824 822 820 818 815 813 811 809 806 803 801 798 796 794 792 791 789 787 785 782 780 778 776 774 773 770 768 766 763 761 760 757 756 754
909 909 913 921 916 905 904 906 892 867 853 862 876 878 877 880 883 884 882 880 881 879 875 874 869 864 864 863 862 861 858 855 854 850 848 848 847 845 844 842 842 840 838 837 835 833 831 829 827 826 825 823 821 819 817 815 813 811 808 806 803 800 798 795 793 792 790 788 786 784 782 780 777 775 773 772 770 768 765 763 761 758 756 754 753 751
903 908 911 917 918 908 904 908 893 866 859 872 879 879 882 883 884 885 875 864 867 872 869 868 866 862 863 862 859 856 853 851 850 847 846 845 843 843 842 841 839 838 837 835 833 830 828 827 826 824 822 820 818 816 814 812 810 808 805 803 800 797 795 793 791 789 787 785 783 781 779 777 775 773 771 769 767 764 762 760 758 755 753 751 749 747
899 906 908 910 912 907 903 906 900 881 868 868 872 875 878 877 878 884 877 859 856 864 865 862 861 861 861 858 855 853 850 848 845 843 842 841 840 840 840 838 837 836 834 833 830 828 826 825 823 822 819 817 815 813 812 810 808 805 802 799 797 794 792 791 789 786 784 782 780 778 776 775 773 771 769 766 764 761 759 757 754 752 750 748 745 743
899 903 903 902 905 910 910 908 907 891 863 854 864 871 872 873 875 883 886 867 850 852 858 857 858 858 856 854 853 851 850 847 841 837 838 838 838 837 836 835 835 833 831 830 827 825 824 822 821 819 817 815 812 811 809 807 805 803 799 796 794 792 790 788 786 784 782 779 777 776 774 772 771 768 766 763 761 758 756 754 752 749 748 745 743 740
903 907 907 903 903 908 911 909 911 897 864 851 862 870 873 875 874 882 886 865 845 848 854 853 854 854 852 852 851 851 854 850 837 830 833 835 834 833 832 830 830 829 827 826 824 822 820 819 817 816 814 812 810 808 806 804 802 800 796 794 792 790 788 786 783 781 779 776 775 773 771 770 768 766 763 761 758 756 753 751 749 746 745 743 740 738
903 906 909 905 901 906 911 910 907 893 868 858 862 868 873 875 876 885 879 851 841 850 851 849 852 851 850 850 849 849 853 848 835 827 829 830 830 830 829 827 826 825 824 822 820 818 817 816 815 812 811 809 807 806 804 802 799 797 794 792 790 788 786 783 781 779 776 774 772 770 769 767 765 763 761 758 755 753 751 748 746 744 742 740 737 735
901 906 910 907 904 910 914 909 901 884 862 856 861 867 872 876 881 883 862 838 840 850 848 847 850 847 846 847 845 844 843 839 833 828 827 828 827 826 826 825 823 823 821 819 817 815 814 813 812 810 808 806 804 803 801 799 797 794 792 790 788 786 783 781 778 776 774 771 769 768 766 764 762 760 758 755 753 750 748 746 743 741 739 737 735 732
894 902 909 909 906 908 911 910 902 877 853 852 861 866 871 873 870 858 840 832 839 843 841 844 845 841 841 841 840 838 835 832 831 828 826 827 825 823 823 822 821 819 818 816 814 813 811 809 808 806 805 803 802 800 798 796 794 792 790 787 786 783 781 779 776 774 771 769 767 765 763 761 759 757 754 752 750 747 745 743 741 739 736 734 732 730
883 886 891 897 898 901 911 914 892 856 841 851 860 863 867 861 844 833 831 834 837 837 838 840 838 837 837 835 834 834 831 829 829 827 825 824 822 822 821 820 818 817 814 813 811 810 809 807 805 803 801 800 799 797 795 794 791 789 787 785 783 781 779 776 774 771 769 767 765 763 761 759 756 754 751 749 747 744 742 740 738 736 734 732 730 727
881 874 870 877 883 885 890 884 856 831 835 849 847 843 848 843 830 828 832 832 832 834 836 835 833 833 833 832 831 830 828 827 826 824 822 821 820 820 819 817 816 814 811 810 809 808 807 805 802 800 798 797 796 794 793 791 788 786 784 782 780 779 776 774 771 769 767 765 763 761 759 756 753 751 748 746 744 742 739 737 736 734 732 730 728 725
867 864 859 861 867 866 857 844 832 830 839 845 838 831 832 831 829 831 831 829 830 832 831 830 829 829 830 830 829 827 826 824 822 821 821 819 817 817 816 814 813 811 809 808 807 805 804 801 799 797 795 794 793 791 790 788 786 783 781 779 778 776 773 771 769 767 765 763 761 759 756 753 750 748 745 744 742 740 737 735 734 732 729 728 726 723
859 866 865 858 858 858 844 829 829 833 831 832 833 830 828 827 827 828 829 828 828 826 826 827 826 825 827 828 826 825 823 821 819 819 819 817 816 815 813 812 810 809 807 806 804 803 801 798 796 795 792 791 791 789 787 785 783 781 778 776 775 773 770 768 767 765 763 761 758 756 753 750 748 745 743 742 740 738 736 734 732 730 728 726 724 722
860 866 865 858 859 858 839 823 826 828 823 825 828 825 825 825 823 824 824 823 822 823 823 824 824 824 825 825 824 822 820 819 818 817 816 816 815 813 811 809 807 807 806 804 802 800 798 795 794 792 790 789 787 785 784 782 780 778 776 774 772 770 768 766 764 762 761 758 756 754 751 748 746 743 741 740 738 736 734 732 730 728 726 724 722 720
855 862 861 857 858 853 833 820 824 825 820 822 824 821 821 821 818 819 820 819 819 821 820 821 822 822 821 821 821 819 817 817 817 816 815 815 813 810 809 807 805 805 803 801 800 798 795 793 791 789 788 786 784 783 781 779 777 775 773 771 770 767 765 764 762 760 758 756 754 752 749 747 744 742 739 737 736 734 732 730 728 726 724 722 721 719
856 858 855 852 852 848 834 823 823 820 814 815 816 815 814 814 814 816 817 816 817 818 818 819 819 818 818 817 817 816 815 815 815 815 814 813 810 808 807 805 803 802 800 799 797 795 793 791 789 787 786 783 782 780 778 776 774 773 771 769 767 765 764 762 760 758 756 754 752 749 747 745 743 741 738 736 734 732 730 729 727 724 722 720 719 717
853 847 847 851 848 838 824 814 813 813 807 803 806 809 809 809 812 813 813 814 815 814 814 816 815 815 815 814 813 813 813 812 812 813 812 810 808 805 804 802 801 799 797 796 794 792 791 789 787 785 783 781 779 778 775 774 772 770 769 767 765 763 762 759 757 756 754 752 750 747 745 743 741 739 737 734 732 730 728 726 725 724 721 718 716 715
837 829 833 838 831 817 806 802 807 811 805 799 800 804 805 806 809 810 809 810 810 810 811 812 812 812 812 810 810 811 810 810 810 809 808 807 804 802 801 800 799 796 795 794 792 789 788 786 784 783 781 778 777 775 773 771 769 768 766 765 762 761 759 757 755 754 751 750 748 745 744 742 740 738 736 733 731 729 726 723 721 720 719 717 714 712
Wind_Speed
4 5 6 4 5 6 5 3 1 2 1 2 3 2 4 5 6 6 7 8 5 5 6 3 7 10 5 9 9 8 12 14 12 12 11 10 10 9 10 10 10 10 10 17 22 24 26 27 29 29 31 33 34 36 37 37 37 37 37 38 40 41 43 43 40 39 40 40 39 36 34 29 28 30 27 22 18 12 7 6 13 17 23 28 32 35
6 7 3 4 5 3 3 4 5 4 4 5 4 4 5 4 9 10 8 6 6 6 8 8 9 7 10 11 9 11 13 13 11 12 11 11 11 9 10 11 10 8 10 16 20 22 24 25 27 28 29 31 32 33 35 35 35 35 36 36 37 38 41 42 39 35 34 35 33 30 29 26 25 30 30 29 29 25 18 11 6 6 7 14 22 29
6 5 3 7 4 2 5 6 7 5 3 7 5 4 6 6 9 10 7 6 5 4 10 14 8 7 13 12 12 13 12 11 10 12 11 11 12 10 10 10 9 9 9 12 15 19 22 23 25 26 27 29 28 30 32 33 34 35 35 34 34 36 37 39 39 37 33 31 30 27 27 26 26 30 30 29 31 31 27 21 17 13 10 7 10 17
5 3 3 4 4 6 6 6 8 6 4 6 6 4 7 8 8 9 10 13 10 2 7 13 6 7 9 11 13 11 10 10 11 13 12 11 11 10 9 8 9 10 9 9 11 15 19 20 22 24 24 26 27 28 30 32 32 33 33 33 32 33 35 36 37 36 34 33 32 28 26 27 28 31 32 30 31 34 33 30 27 23 19 16 10 8
5 4 3 5 7 8 8 10 11 8 6 5 4 3 8 12 10 9 10 14 15 7 5 5 4 5 5 8 9 8 9 10 10 12 12 10 9 8 8 8 8 8 7 7 8 11 16 18 19 21 22 23 25 26 27 29 30 30 31 31 30 30 32 34 34 33 34 35 37 35 33 35 35 35 36 36 36 38 37 34 32 29 27 26 20 11
4 4 3 6 8 11 11 10 9 6 7 6 3 3 8 10 11 11 10 8 10 8 1 6 5 1 3 8 8 6 8 10 9 11 11 9 8 8 8 8 7 6 6 6 7 9 13 16 18 20 21 22 23 24 25 26 27 28 29 30 30 29 29 31 32 32 32 34 37 38 36 35 34 32 33 32 32 34 34 31 32 30 28 30 29 22
3 5 4 6 7 12 12 8 8 7 6 6 5 6 8 8 9 12 12 6 2 8 5 6 2 3 2 7 6 6 8 9 8 9 9 7 7 7 6 6 6 6 6 7 8 11 13 15 16 18 19 21 21 22 24 25 26 26 27 29 29 28 28 29 30 31 32 31 33 33 32 30 28 26 25 26 26 28 28 28 30 31 29 29 31 30
3 8 8 8 9 11 9 8 9 7 5 6 9 10 11 10 12 12 10 5 2 6 8 2 3 4 1 4 4 5 8 8 8 8 7 7 7 5 5 5 5 6 6 6 7 11 15 16 16 17 17 18 19 21 24 25 25 26 26 27 26 27 27 27 28 30 30 30 29 28 27 26 25 25 25 25 26 26 26 26 29 32 31 30 31 32
2 6 7 8 9 8 6 7 9 7 3 6 10 11 10 8 11 11 6 5 3 2 6 5 2 2 2 1 1 3 6 7 7 7 7 6 7 5 5 5 5 6 7 7 7 10 15 18 19 18 17 17 17 19 21 22 23 24 24 25 25 25 25 26 27 28 28 28 27 27 25 23 22 22 23 24 27 27 27 28 30 31 32 32 32 32
1 2 1 6 8 6 6 8 8 7 4 7 9 10 9 7 8 8 4 3 4 2 4 7 9 5 3 2 3 2 4 4 4 5 4 5 6 6 7 7 6 6 7 8 9 11 14 17 19 19 19 19 18 18 19 20 20 20 22 23 24 24 24 24 25 26 27 27 27 27 26 24 22 21 21 21 24 28 30 32 33 32 31 30 31 32
3 3 1 5 5 6 6 6 7 7 6 6 7 8 8 7 5 4 2 1 3 2 4 8 13 10 4 2 4 4 3 4 2 2 3 5 6 7 7 7 7 6 6 6 9 11 13 15 16 17 18 19 19 20 19 19 19 19 19 19 20 22 22 23 23 24 25 25 26 26 25 25 24 24 24 23 23 26 30 33 35 34 31 29 28 29
6 6 4 1 3 6 7 5 6 6 6 6 5 5 6 5 3 3 3 3 4 4 4 11 14 9 4 1 2 2 1 2 2 2 4 6 6 6 5 5 5 5 5 5 6 9 11 13 14 15 17 19 20 21 21 20 19 18 17 15 16 19 20 21 22 23 23 23 23 24 25 25 24 24 24 23 23 24 25 27 30 32 31 31 30 29
5 5 5 4 4 7 7 5 5 2 4 7 5 5 6 4 5 5 4 5 4 6 7 13 12 4 1 1 1 2 1 3 3 3 4 4 4 5 4 4 4 3 4 4 4 7 9 11 13 15 17 19 21 23 23 22 21 19 16 13 14 16 17 18 20 21 22 22 21 21 22 23 23 23 23 21 21 22 21 21 22 24 25 28 30 31
3 2 6 6 5 7 6 4 4 3 4 8 7 6 5 4 6 6 5 5 5 9 12 13 8 2 1 2 5 3 1 2 3 2 2 3 4 5 5 5 5 5 5 5 5 6 9 11 13 15 16 19 22 24 25 25 24 22 17 13 13 15 15 15 16 17 18 20 21 21 21 21 21 22 22 21 20 20 20 19 19 18 19 22 26 29
3 3 5 4 3 6 6 3 2 3 2 4 4 3 4 3 1 2 3 4 6 9 11 9 4 1 2 1 4 3 1 1 1 2 3 5 6 6 6 5 6 6 6 5 6 8 11 13 14 16 18 20 23 26 27 27 27 26 20 14 15 16 15 15 16 15 15 16 17 20 21 21 20 19 20 21 21 21 20 20 21 20 19 19 22 25
4 2 4 2 2 6 6 3 3 4 2 2 2 4 3 2 2 2 3 2 5 9 7 3 0 2 1 1 3 3 3 3 3 5 5 6 6 6 6 6 6 6 6 6 6 8 12 15 16 17 19 22 25 27 28 28 29 30 23 16 17 18 16 16 16 15 15 14 14 16 18 20 21 20 20 20 21 22 22 22 23 23 22 21 21 22
3 3 3 2 4 6 3 1 6 6 2 2 3 3 4 4 4 1 4 2 2 6 5 2 2 2 2 2 3 3 4 5 4 5 6 6 7 6 6 6 6 6 6 6 6 8 12 14 16 19 21 24 26 28 28 27 28 28 21 17 18 19 18 17 16 15 16 15 15 15 15 16 18 20 21 21 20 20 21 23 25 25 25 25 24 23
2 3 2 2 5 5 4 5 8 6 2 3 2 4 5 2 4 3 2 2 2 4 5 4 5 4 4 2 0 3 5 5 5 6 6 7 7 7 7 7 7 7 6 6 7 10 13 14 17 20 22 25 26 26 25 24 25 24 18 17 19 19 18 18 16 16 16 16 17 17 16 16 16 17 19 21 22 21 21 22 24 25 27 27 26 26
3 1 5 0 5 6 2 6 5 3 4 6 2 3 1 2 1 1 1 2 4 5 6 7 6 4 4 3 1 4 6 5 7 6 5 7 7 7 7 8 8 7 6 6 6 8 11 14 18 21 22 23 23 23 24 23 23 24 21 20 21 21 20 19 19 19 19 19 20 19 18 18 17 17 17 18 20 22 23 24 24 24 27 28 28 28
2 3 4 3 5 6 4 4 3 4 3 4 2 2 2 2 2 1 0 1 2 4 6 8 8 4 4 5 4 5 6 6 7 7 5 7 8 7 7 6 7 6 5 5 5 8 12 17 20 19 18 20 21 21 23 23 24 25 24 23 24 23 23 23 24 24 23 23 23 22 22 21 20 20 18 17 17 19 23 25 26 26 26 27 28 29
2 2 2 4 6 4 2 1 1 3 4 4 4 4 4 2 1 2 1 2 2 2 4 7 9 6 4 3 4 5 7 6 7 7 6 7 8 8 7 6 6 5 5 6 6 8 13 18 19 16 16 19 20 21 23 22 22 21 21 21 22 23 24 25 25 26 26 26 25 25 26 24 23 21 19 19 19 20 21 23 24 27 28 27 27 28
1 2 2 4 5 2 3 2 5 4 4 3 3 4 3 3 2 3 5 0 3 1 4 6 9 8 3 3 4 5 6 6 7 7 7 8 7 7 6 6 5 5 5 6 7 10 15 17 15 14 15 17 18 21 22 19 17 16 17 18 19 21 22 23 25 26 26 27 26 26 26 25 24 23 22 22 22 23 23 23 23 25 26 28 29 28
2 3 0 4 3 5 8 3 6 5 6 5 0 1 1 1 3 1 5 4 2 2 3 4 7 7 3 5 5 5 6 7 6 7 7 7 6 6 6 5 5 5 6 7 9 13 16 15 13 13 15 16 18 21 19 15 14 16 16 17 18 20 21 22 24 25 26 27 27 27 27 28 28 28 28 28 27 27 26 25 25 24 24 26 28 28
2 3 2 4 3 6 8 3 3 2 6 5 1 1 2 0 1 4 4 2 2 3 2 2 6 7 3 4 5 5 6 6 6 7 7 6 7 7 6 6 6 7 8 8 10 15 16 13 12 14 15 16 19 21 17 14 15 16 15 16 18 20 21 22 23 24 26 27 28 28 29 30 31 31 32 32 32 30 27 25 25 24 24 24 25 26
1 1 1 3 5 4 4 3 2 1 3 1 3 2 3 2 2 2 1 2 2 4 4 2 7 8 4 4 4 4 5 6 7 6 5 6 8 7 7 7 7 8 9 9 11 13 11 9 11 14 16 18 21 22 19 17 16 16 16 18 20 21 22 22 22 23 24 25 27 28 29 30 31 31 30 29 28 26 25 25 26 25 24 24 26 28
2 2 3 4 2 3 4 4 4 4 4 3 2 1 2 4 3 2 1 2 3 5 5 4 8 13 9 6 6 7 7 9 11 7 5 6 7 8 8 8 8 8 9 11 12 9 6 8 12 14 17 19 21 23 22 19 16 17 18 20 21 22 22 22 22 24 24 25 26 27 28 27 27 27 27 26 26 27 29 30 31 30 29 28 29 30
3 1 2 6 6 5 6 8 8 6 6 6 7 6 6 5 4 4 2 2 4 4 5 7 10 15 17 13 10 11 11 13 12 8 7 7 7 9 9 9 9 9 10 12 10 6 6 10 13 16 18 20 21 25 23 18 16 19 21 22 22 22 22 22 24 25 25 25 26 26 26 25 26 28 29 30 32 33 34 33 32 32 32 32 32 32
5 0 3 6 7 8 10 11 10 8 8 10 10 9 8 6 5 7 5 7 3 1 9 12 8 11 18 15 11 13 15 14 11 8 8 8 8 10 10 10 11 11 12 12 8 5 7 10 13 17 19 21 24 27 24 17 18 22 23 24 25 25 25 24 24 25 25 26 25 25 25 25 27 29 31 32 33 33 32 31 31 31 32 34 35 36
5 2 4 5 6 10 10 11 11 9 8 9 10 10 10 8 7 9 11 9 6 4 13 16 10 12 17 15 12 13 13 11 9 8 9 10 11 11 11 11 11 13 14 11 6 6 8 9 13 17 21 23 26 25 20 17 20 23 24 26 28 27 26 25 25 26 25 24 23 23 24 26 28 31 32 32 31 31 31 32 33 33 33 33 35 37
4 2 4 3 6 9 9 10 11 8 6 8 10 12 11 9 10 11 10 8 8 11 15 15 16 18 16 12 12 10 8 7 8 8 10 11 12 13 12 11 12 13 12 8 6 8 9 11 15 19 22 23 22 20 19 19 23 25 26 28 27 26 25 24 25 25 24 23 23 24 26 29 31 31 30 29 30 32 35 35 33 31 30 31 32 34
3 1 1 2 4 7 7 7 8 7 8 10 13 13 10 8 9 9 8 6 6 10 12 11 14 17 12 8 8 7 5 6 9 10 12 12 12 12 11 12 13 12 8 6 7 9 9 13 17 20 21 20 19 20 22 24 26 26 26 26 24 24 24 24 24 25 24 25 26 28 29 29 28 27 27 30 33 34 33 30 29 29 29 30 30 30
3 1 2 5 4 6 4 2 7 9 9 10 12 12 9 7 6 6 5 6 6 8 9 9 11 13 10 7 7 7 7 9 11 12 12 12 12 11 11 13 13 9 6 7 9 10 11 14 18 19 18 17 19 22 25 26 27 25 24 23 23 24 25 25 26 26 27 28 28 28 27 26 26 28 30 32 30 28 27 28 29 30 30 29 27 26
4 2 1 3 2 6 2 1 7 7 5 6 7 7 7 7 6 6 6 7 8 7 6 8 10 11 10 8 9 10 10 10 12 12 12 12 12 12 12 12 9 7 8 10 11 12 14 17 19 18 17 18 22 25 25 25 24 22 22 23 25 26 27 27 28 28 28 28 26 26 25 26 28 29 28 26 25 25 28 30 30 29 27 26 25 24
4 4 1 2 1 6 6 6 6 4 3 5 5 6 7 7 8 8 8 8 9 8 8 10 12 14 13 10 9 10 10 11 12 13 12 10 10 12 12 8 6 8 11 12 12 14 18 20 19 18 18 22 25 26 24 21 21 22 23 26 28 29 29 30 29 28 26 24 25 26 27 27 27 25 24 24 25 27 28 27 27 26 25 25 25 24
5 4 2 2 2 4 5 6 6 3 4 6 5 5 5 6 7 9 11 12 12 12 12 13 15 15 12 10 9 10 11 12 13 13 12 10 10 9 8 6 7 10 12 12 13 17 20 20 17 18 21 25 26 25 22 21 22 24 26 28 30 30 30 29 26 23 23 24 26 26 26 25 24 23 24 25 25 25 26 26 26 27 28 28 28 27
6 5 2 2 2 2 3 3 1 6 8 6 3 3 3 2 2 5 11 12 11 10 11 13 13 12 9 8 10 10 12 13 11 10 10 10 8 5 4 7 9 11 12 13 16 20 21 18 17 21 24 26 27 24 21 22 24 26 28 30 31 29 26 23 22 23 25 26 25 25 24 23 22 21 23 24 25 26 27 27 28 29 29 29 29 28
7 5 2 0 2 1 1 3 3 7 10 7 2 3 4 3 4 2 6 12 8 7 10 12 10 8 8 9 11 11 12 12 10 8 6 6 5 4 7 10 11 12 15 18 22 23 20 18 20 23 26 28 27 23 21 24 26 27 30 31 28 24 21 20 23 26 26 25 24 24 22 20 20 22 24 26 27 27 28 28 28 28 28 27 27 26
5 3 3 2 1 2 1 4 4 5 6 5 6 6 4 5 6 7 2 12 11 6 8 8 7 8 10 11 12 11 11 11 11 7 3 4 5 7 10 13 14 16 18 21 24 23 19 19 21 24 26 28 26 22 23 27 27 28 30 27 22 20 20 24 26 26 25 25 24 21 19 20 23 25 26 26 26 27 27 28 28 27 26 25 24 24
3 2 4 3 2 1 3 2 3 4 7 7 7 6 5 6 6 6 1 10 8 4 7 7 6 9 11 11 11 8 7 10 13 9 4 5 8 10 11 13 15 17 19 23 24 20 17 19 22 24 27 26 23 23 26 28 28 29 27 22 18 20 23 26 26 26 27 26 22 19 20 24 26 26 26 26 26 27 27 27 27 27 25 25 25 26
1 2 2 3 4 3 4 3 4 5 8 7 7 7 5 5 8 7 5 9 5 6 7 5 6 10 10 10 10 6 5 9 12 11 10 11 13 14 14 14 16 18 21 24 24 19 17 19 22 25 26 23 21 24 27 27 28 27 23 19 20 23 25 26 26 27 28 25 20 20 24 25 26 27 27 27 27 28 28 27 26 27 27 26 26 25
2 1 2 3 4 4 5 4 5 5 7 7 6 7 7 6 6 2 6 6 5 6 6 5 7 10 9 8 8 7 7 9 11 13 14 14 15 16 16 17 17 19 22 24 23 19 19 20 22 24 25 23 22 25 26 25 25 24 21 19 21 25 27 27 27 28 26 22 21 23 25 25 26 28 28 27 28 28 28 26 26 27 26 25 25 24
1 1 1 2 3 3 4 4 4 7 6 6 5 4 7 5 1 6 6 3 4 5 7 6 8 9 8 8 8 8 10 11 12 13 13 13 13 14 15 17 19 21 23 24 20 17 19 22 24 25 24 22 22 25 26 24 23 23 20 19 22 27 28 28 28 27 24 21 22 25 26 26 28 28 28 28 28 28 28 27 25 25 24 24 24 24
4 3 2 3 4 3 1 1 2 6 6 7 8 4 3 5 6 6 4 2 4 5 6 6 7 7 8 9 9 10 12 12 12 12 13 12 11 12 15 18 19 21 24 21 17 16 19 22 24 25 24 22 22 25 25 23 23 22 20 20 24 27 28 28 28 26 22 21 23 25 26 27 29 29 28 28 27 27 27 25 23 23 23 23 22 22
5 5 3 3 3 4 3 5 5 4 5 8 8 4 6 9 8 5 5 6 5 5 5 6 7 6 6 8 10 11 12 12 11 12 12 11 10 12 15 18 21 23 22 17 15 18 20 22 23 23 23 23 24 25 24 23 23 22 21 22 25 26 27 28 26 22 20 22 24 25 27 29 29 29 28 27 26 25 24 23 22 23 23 21 20 19
7 7 4 4 5 4 6 9 7 3 4 7 8 8 9 10 8 6 7 8 6 5 5 6 7 6 5 7 10 10 10 11 11 11 10 10 10 12 16 20 23 22 18 16 18 21 22 23 23 21 21 22 25 26 25 23 22 23 24 24 24 26 27 26 22 20 21 23 25 26 28 29 29 28 26 24 23 22 22 22 22 21 20 20 19 18
5 4 3 2 3 4 8 12 11 10 10 10 10 10 10 10 8 6 7 8 7 6 5 5 6 7 6 6 8 8 9 11 11 10 9 10 11 14 19 23 21 17 16 18 22 24 24 23 21 19 20 22 25 27 25 24 24 26 25 23 25 27 26 21 18 20 22 23 25 27 28 28 27 26 24 22 21 21 21 21 21 20 19 19 18 18
2 3 3 3 1 2 7 8 7 10 13 10 8 9 9 10 9 7 7 8 7 6 6 5 6 7 6 6 7 9 10 10 10 10 9 9 11 15 19 20 16 15 17 21 24 25 24 22 20 18 19 22 25 26 25 25 27 26 23 24 27 27 22 18 17 20 21 23 25 27 26 26 25 24 23 22 21 21 21 20 20 20 20 19 18 18
1 4 4 5 5 5 9 11 9 11 12 10 9 9 8 9 10 8 7 8 7 5 6 7 7 6 5 6 7 9 9 8 7 9 9 9 11 15 17 16 15 17 20 23 24 24 22 21 20 19 19 22 26 26 24 26 28 24 23 26 27 22 19 18 18 19 20 23 25 25 24 24 23 22 22 22 21 20 21 21 21 21 20 19 18 18
4 4 4 4 4 7 12 14 13 12 13 11 11 11 9 8 8 8 7 7 6 6 6 7 8 8 8 8 8 7 8 7 6 7 9 9 10 14 16 16 17 19 22 24 24 23 22 22 22 20 21 24 26 25 25 26 25 23 24 26 23 20 21 21 19 18 21 23 24 25 24 22 21 21 22 22 22 21 20 19 19 20 22 22 20 18
5 5 4 1 3 7 11 11 8 7 9 9 8 9 9 8 7 7 7 7 7 7 6 6 8 9 10 11 10 6 6 6 7 8 9 9 12 15 17 18 19 21 23 24 24 23 23 23 23 21 22 25 26 25 24 24 24 24 24 23 22 24 24 20 17 18 21 22 23 24 22 20 20 21 22 22 22 21 21 20 19 19 20 21 20 18
7 9 7 6 7 10 12 11 6 4 8 11 9 7 7 6 5 7 8 8 8 8 6 6 7 7 7 10 11 8 6 7 8 9 9 10 14 17 17 18 20 21 23 24 23 23 24 24 23 22 23 26 26 25 24 24 24 24 23 23 25 27 23 17 16 19 21 22 23 21 18 18 20 22 22 21 20 20 21 24 24 20 17 17 18 19
Wind_Direction
75 59 42 24 346 338 346 18 24 234 224 292 290 307 300 299 296 283 272 286 1 349 282 283 288 293 22 61 51 50 59 60 59 57 54 47 46 43 41 40 37 37 31 26 27 27 27 27 27 27 27 26 26 25 24 24 23 22 22 22 22 21 21 21 19 17 17 16 14 13 15 13 13 22 29 28 22 13 352 269 236 229 224 220 215 213
61 69 28 331 311 319 14 53 46 36 23 0 356 348 336 321 308 302 283 294 18 6 300 307 310 339 50 51 39 49 57 53 51 53 50 46 43 39 38 35 33 33 27 26 26 25 25 26 26 27 27 26 25 24 23 24 23 23 23 23 22 21 23 24 22 19 16 16 14 12 13 11 13 22 25 24 24 23 22 23 360 319 269 240 226 222
49 57 323 310 302 98 63 60 56 40 17 5 6 359 341 333 314 299 287 307 9 15 310 310 325 42 55 54 49 50 60 57 51 55 50 45 43 37 34 30 26 24 20 22 21 19 20 22 24 25 26 26 25 24 23 24 23 24 24 23 22 22 24 24 25 25 19 15 15 15 17 17 18 22 21 19 20 21 23 26 24 15 1 327 263 241
58 353 304 341 18 72 49 24 33 26 25 7 353 3 338 332 335 314 315 325 325 272 266 296 330 78 57 57 58 46 59 61 52 56 50 46 45 36 33 29 26 23 16 15 13 13 15 17 21 23 23 24 24 23 22 22 23 23 23 24 23 23 24 24 26 27 24 21 20 17 19 23 21 20 17 13 13 15 15 17 20 21 18 9 346 290
82 300 309 50 41 56 40 16 23 16 2 343 311 358 338 323 325 306 307 323 322 300 218 286 354 85 47 52 65 44 54 58 50 54 48 44 43 36 37 30 24 23 13 8 4 3 8 12 16 20 22 23 23 23 22 22 22 22 23 24 24 24 24 24 26 27 27 27 25 21 20 22 19 16 14 10 7 9 8 8 13 16 17 16 13 5
78 302 338 47 34 42 36 18 20 11 353 337 288 338 332 312 306 297 304 331 330 317 74 60 12 354 53 57 65 49 54 55 48 53 47 38 36 34 35 28 19 17 9 4 357 354 1 6 12 16 19 20 21 21 20 19 20 21 22 23 24 24 24 24 25 26 27 30 30 27 24 21 16 13 12 8 3 4 3 2 6 10 14 16 15 17
25 340 33 67 42 36 31 12 8 15 9 334 310 334 332 315 303 300 312 337 329 293 318 59 39 245 79 65 65 66 68 62 52 52 47 35 32 31 27 21 14 8 3 1 356 354 357 1 5 10 14 16 16 15 13 14 15 16 18 20 22 22 23 23 24 26 28 30 32 33 31 27 21 14 9 5 2 2 359 358 4 9 11 13 12 13
353 356 20 50 44 32 23 2 350 9 23 312 315 337 333 322 310 305 312 309 239 283 307 17 169 234 22 82 111 99 74 61 55 48 41 35 29 22 13 5 2 1 360 358 356 357 358 357 357 360 6 10 10 8 7 6 8 9 11 14 16 19 21 21 21 23 27 29 31 33 35 33 28 20 12 8 6 4 359 359 6 10 11 11 9 7
357 11 11 40 44 32 10 341 329 357 19 291 313 330 320 312 301 299 309 287 279 337 312 320 22 308 299 104 157 117 78 57 56 48 35 32 26 17 12 360 352 353 352 355 354 357 1 1 359 355 355 358 359 360 360 359 0 1 3 5 8 12 16 17 18 20 22 25 27 29 31 31 29 24 18 15 12 8 4 3 8 12 11 11 8 4
340 349 41 72 49 18 350 328 322 351 341 292 322 331 314 309 294 293 307 295 331 14 293 331 6 343 288 47 8 21 63 40 49 55 30 24 24 21 18 6 358 355 352 355 352 353 357 358 359 356 350 346 345 346 347 348 350 353 355 358 1 5 8 11 14 17 18 19 21 22 24 24 23 21 20 19 17 13 11 8 8 11 10 9 7 3
315 310 105 94 47 6 354 333 323 334 326 323 345 338 321 313 299 316 345 61 23 310 277 351 358 340 310 68 39 11 20 17 34 56 17 22 23 19 15 5 2 359 352 350 346 346 347 347 349 349 344 339 334 332 332 334 338 341 345 351 356 359 1 4 6 11 14 15 16 16 16 17 16 15 15 16 16 14 13 11 8 7 6 6 5 2
18 31 14 357 26 18 9 344 327 327 350 14 358 334 334 317 327 14 3 46 27 280 298 351 343 331 292 243 58 25 5 40 47 23 13 16 9 1 357 348 347 346 339 336 332 328 329 332 334 332 333 334 330 325 323 324 326 328 334 341 350 354 356 359 0 3 7 9 12 11 10 10 9 9 10 11 12 13 14 13 9 5 2 360 358 358
37 51 358 336 5 21 18 349 330 339 28 21 2 0 9 350 354 3 351 8 343 293 325 340 327 317 231 230 187 226 281 39 29 21 14 355 336 326 316 311 309 306 307 300 297 303 306 312 319 322 326 333 335 330 324 320 317 318 322 330 341 347 350 353 356 358 1 2 3 4 5 5 3 2 4 4 5 8 10 11 10 5 360 355 353 354
350 340 359 3 350 4 30 34 356 343 14 15 11 19 24 15 358 344 340 344 308 301 322 331 324 307 313 195 184 201 16 37 13 5 345 303 288 282 278 277 280 279 277 276 274 283 291 301 313 319 324 333 339 338 331 324 317 312 310 319 330 336 340 343 348 352 355 356 355 355 355 356 356 355 355 354 355 357 359 1 2 360 356 352 349 350
23 341 349 4 352 1 16 59 20 323 11 24 17 63 74 52 4 286 315 331 306 303 314 332 348 256 288 179 164 162 144 161 287 270 258 262 259 262 269 267 271 273 268 270 273 276 286 300 313 319 325 332 336 337 334 329 325 316 307 312 323 328 333 333 333 337 341 346 347 347 346 344 345 346 346 346 344 344 347 348 349 348 347 347 346 346
35 298 281 317 54 39 4 315 10 16 41 44 32 82 65 327 204 217 259 264 292 298 298 324 243 213 276 209 174 161 195 211 232 249 253 263 266 269 279 273 266 268 269 273 271 277 291 304 318 325 327 332 333 331 329 328 329 321 309 311 321 325 330 328 326 326 324 326 330 335 338 336 335 334 335 336 335 335 336 338 340 339 338 339 339 341
35 286 284 345 6 46 61 341 40 37 4 359 25 15 304 270 150 126 296 267 294 299 289 290 276 295 347 253 208 200 225 230 241 258 264 272 280 285 287 285 280 274 278 285 285 293 304 314 328 333 331 331 329 327 326 329 335 330 313 312 324 327 327 323 321 320 316 312 312 316 322 324 326 327 326 325 325 326 328 329 331 331 331 332 332 333
121 290 298 67 0 11 99 95 68 61 39 50 24 309 301 320 100 98 300 306 331 295 281 294 294 300 310 302 243 212 233 249 260 260 267 275 285 287 285 286 288 287 293 299 303 313 319 326 336 334 330 330 329 329 332 337 346 343 327 322 328 326 321 316 313 313 312 308 303 305 309 309 310 313 316 317 317 317 317 320 323 323 324 325 325 327
103 337 290 345 9 343 39 78 61 24 50 94 157 282 7 60 12 18 290 296 308 296 292 299 295 277 263 261 210 216 228 249 268 269 273 284 289 285 285 289 293 301 308 306 312 320 325 331 332 329 330 334 336 339 340 341 343 342 334 328 326 321 317 315 312 309 309 309 306 304 305 303 300 300 301 302 307 310 311 313 315 315 317 319 319 321
84 98 276 308 9 349 358 47 22 336 14 109 131 345 63 136 212 263 304 206 255 284 292 301 304 284 238 222 204 235 246 253 278 291 287 288 289 281 283 294 298 305 311 312 320 323 326 328 325 327 336 338 339 339 337 335 334 335 335 332 330 329 328 327 323 317 313 313 313 311 308 305 301 299 295 290 290 298 304 309 311 310 311 312 312 315
30 91 247 309 3 17 9 46 77 15 5 19 23 8 358 350 252 281 302 146 156 269 282 303 303 278 235 200 195 234 254 254 268 282 286 292 294 287 284 289 294 300 307 312 317 318 321 321 319 326 336 335 334 334 331 330 329 332 334 334 335 337 337 337 336 331 325 323 322 319 315 311 307 304 301 296 289 288 293 301 305 308 308 306 306 309
38 96 217 304 347 358 290 205 145 113 65 40 356 347 338 355 34 350 323 19 114 217 257 287 293 279 238 171 192 221 241 251 260 273 288 294 294 288 280 277 286 296 303 307 312 315 315 314 313 320 326 328 330 328 326 326 329 332 334 334 335 337 338 340 339 337 334 331 329 326 323 320 318 315 312 307 300 294 291 292 297 302 303 302 302 302
146 95 230 281 288 272 278 244 146 130 93 101 148 23 70 35 65 41 291 297 329 291 268 270 280 276 222 178 201 222 237 250 259 270 283 293 297 293 279 279 292 298 303 309 313 316 314 311 312 317 320 325 327 324 321 320 325 328 331 334 336 336 336 335 334 333 333 331 329 327 325 322 320 318 314 311 306 302 297 295 297 298 296 295 296 296
90 65 345 291 277 263 271 256 160 124 79 85 248 158 120 309 169 185 219 275 300 276 279 291 279 276 249 210 213 223 242 257 268 274 283 298 307 303 294 299 308 306 309 311 311 313 311 310 316 321 323 326 328 325 317 311 317 323 327 332 332 331 330 330 330 331 330 329 326 323 320 317 315 312 310 307 304 300 299 298 299 300 295 288 287 291
87 83 26 351 344 324 313 333 304 286 66 79 232 173 139 179 200 219 238 17 298 233 179 197 275 278 253 214 225 241 257 280 291 284 285 301 308 309 307 308 310 310 310 309 310 311 307 308 318 322 325 327 327 325 314 306 314 322 325 328 329 327 327 328 330 330 329 327 323 319 317 314 312 309 307 307 305 303 305 306 307 307 301 292 289 292
117 155 116 92 38 322 306 298 289 292 317 313 247 207 210 201 200 247 330 5 283 245 173 176 263 282 283 269 284 296 294 303 305 295 288 302 307 308 308 308 308 309 311 310 311 308 301 313 319 322 326 325 326 325 315 306 315 324 323 324 325 324 324 325 326 325 324 322 319 317 316 316 315 314 313 313 313 313 313 312 312 311 307 300 297 295
96 109 143 145 168 210 238 251 265 282 288 285 282 282 270 230 172 128 117 214 236 261 259 228 239 273 286 289 301 308 308 308 308 306 307 309 309 306 304 304 304 307 310 309 308 305 310 319 320 322 324 323 326 327 317 307 316 324 322 323 324 322 320 318 318 317 317 316 315 313 313 314 315 315 314 313 313 313 312 312 311 311 309 306 302 298
96 286 218 173 192 224 243 257 268 273 265 267 276 279 276 259 171 150 208 233 191 324 279 260 235 262 281 290 303 305 304 304 305 310 314 310 308 305 301 301 304 308 310 307 304 309 315 318 319 321 323 324 327 325 316 310 319 324 322 322 321 318 315 314 314 314 313 311 309 309 309 310 312 312 312 312 310 309 309 309 309 307 305 303 299 296
113 229 219 180 224 242 247 259 262 259 255 260 267 269 276 271 213 199 228 227 172 197 262 275 284 277 278 289 296 292 293 297 301 309 310 306 306 304 302 304 306 308 309 307 304 310 314 315 318 320 323 325 327 325 319 318 322 322 319 318 317 314 313 314 315 314 312 309 308 309 310 311 312 311 309 308 307 307 307 306 305 303 302 301 299 295
111 220 216 199 264 259 245 253 257 256 258 260 264 267 269 257 230 224 237 227 202 228 255 277 289 280 275 281 284 282 283 288 298 304 304 304 306 304 303 304 304 307 307 303 303 309 311 312 316 320 324 327 329 328 324 321 319 317 316 315 315 315 315 317 317 315 313 312 310 311 311 310 310 308 307 305 305 304 304 303 303 304 305 306 307 303
80 256 205 112 318 288 251 247 257 258 264 269 273 274 268 255 243 239 245 238 228 244 257 272 282 280 277 276 278 282 284 289 297 301 302 304 304 304 303 303 305 306 303 297 305 307 307 312 317 321 323 325 327 326 322 318 316 316 316 316 317 318 319 320 318 315 313 310 309 310 309 309 307 307 306 305 303 302 301 302 303 305 306 307 310 310
88 317 10 62 354 282 220 216 274 269 267 272 276 273 259 238 234 231 227 224 225 248 269 274 272 275 286 299 297 292 290 292 295 298 302 304 304 304 303 303 306 307 304 305 307 309 313 317 319 320 322 325 326 323 320 317 317 317 318 320 321 320 319 317 314 312 309 307 308 308 309 308 308 307 305 304 303 303 304 304 303 302 302 302 304 306
115 119 8 66 327 276 247 333 296 295 313 295 266 238 222 222 237 242 234 228 225 230 259 266 264 273 289 302 300 298 298 298 299 302 305 306 308 305 302 303 305 306 308 311 313 317 319 317 317 320 324 327 324 320 318 318 319 320 321 322 320 318 315 313 311 308 306 306 308 309 309 309 308 305 304 304 306 308 308 306 302 300 300 300 301 302
115 113 151 150 216 279 304 330 326 353 359 287 234 180 191 221 235 239 240 235 229 227 236 253 269 282 291 293 289 289 291 294 298 301 303 305 303 300 300 303 306 308 312 316 317 317 315 314 318 323 325 324 321 318 317 318 319 319 319 319 317 314 312 310 308 307 307 309 311 310 310 309 306 304 305 308 311 311 310 308 304 301 301 301 299 298
123 116 162 173 183 266 318 1 354 320 243 244 233 186 189 205 214 239 253 242 234 242 247 254 266 275 281 283 279 278 285 291 294 293 294 293 288 289 299 307 310 313 317 318 316 314 313 315 320 323 322 321 319 316 316 318 320 319 318 317 315 312 310 309 309 311 313 312 311 310 309 308 305 305 308 311 312 311 309 307 303 301 301 299 297 295
139 139 163 177 189 274 356 48 310 278 279 285 278 204 191 199 213 290 285 257 225 225 244 256 265 267 267 272 277 286 293 294 290 283 279 280 279 281 299 306 309 313 313 313 312 312 313 316 319 320 320 320 317 314 315 319 321 319 317 316 313 309 309 311 313 315 314 311 310 310 308 306 306 309 313 313 312 310 307 305 302 301 301 299 297 295
135 139 137 201 206 194 262 239 252 305 315 317 280 201 187 186 168 149 286 277 255 225 240 256 263 263 269 279 287 297 300 296 292 281 259 253 262 277 289 296 304 306 307 310 310 309 308 311 316 318 319 318 315 312 316 320 320 319 316 313 310 309 312 315 315 313 312 310 309 307 306 309 315 317 315 313 311 309 308 306 304 303 303 300 297 296
120 146 161 192 235 120 101 292 313 331 308 266 236 237 194 163 153 134 209 284 284 246 220 225 241 266 285 294 298 307 311 303 297 290 250 237 271 290 292 295 300 302 304 310 310 306 303 307 313 317 318 317 312 311 318 321 320 319 315 309 308 313 316 316 314 311 310 309 307 306 311 319 321 317 314 312 311 309 308 307 306 304 303 300 297 296
54 43 116 151 248 120 128 244 244 247 260 242 225 228 187 152 127 99 1 288 279 212 183 191 244 281 294 296 297 307 315 300 294 298 304 294 297 301 299 299 301 303 306 310 308 302 300 308 314 317 318 315 309 312 319 321 320 318 311 305 311 317 317 314 312 310 309 307 305 308 317 321 319 315 312 310 309 309 308 306 305 304 303 301 298 296
281 6 99 187 232 190 162 218 234 235 251 243 215 206 183 129 92 72 318 283 243 185 184 199 260 281 285 290 295 292 279 280 286 299 311 310 305 303 299 298 302 305 309 311 307 300 301 310 315 316 317 313 308 314 319 320 319 315 306 305 315 317 314 312 310 310 309 305 304 312 318 319 318 316 312 308 308 309 308 306 304 303 303 301 298 297
234 208 183 203 219 198 191 232 266 261 245 230 210 184 156 107 76 101 257 254 198 195 212 223 262 276 277 283 289 278 267 270 279 294 305 307 305 301 298 297 300 303 306 307 304 301 306 313 314 314 313 309 309 316 319 318 316 310 302 307 314 314 313 311 310 311 308 302 307 316 318 319 318 316 312 308 308 308 307 306 305 303 302 301 299 298
204 214 199 172 183 195 196 216 279 285 249 193 164 147 134 121 215 235 230 204 182 233 255 248 258 275 282 281 277 273 276 281 285 294 301 301 300 301 302 304 303 304 307 306 301 301 309 313 313 312 310 307 311 317 318 316 313 306 301 305 311 312 312 311 312 311 304 302 313 318 317 318 318 316 312 308 308 308 307 307 306 303 303 303 301 298
173 181 231 207 181 166 163 197 278 285 247 159 128 108 145 184 227 242 248 224 208 242 268 263 259 274 284 283 279 278 284 289 292 295 297 298 299 301 304 306 305 305 308 308 303 306 312 312 310 310 309 309 313 317 317 315 311 305 300 302 309 312 312 312 311 308 304 309 317 318 317 318 318 316 312 309 309 310 307 306 306 306 306 305 302 300
184 181 212 229 190 147 167 211 218 230 209 170 158 181 208 216 235 261 280 274 251 237 254 268 273 272 268 277 285 286 288 292 294 297 300 302 304 304 304 306 308 308 310 310 309 313 315 310 308 308 307 309 315 318 317 313 310 305 300 302 309 313 313 312 310 308 311 317 318 317 317 318 317 317 315 312 312 311 307 306 308 308 308 306 303 302
210 192 190 219 210 185 210 232 233 217 181 183 201 226 234 239 250 254 255 264 265 247 247 269 280 275 264 272 281 286 289 293 297 301 306 307 306 308 309 310 310 310 312 314 315 315 315 311 308 306 306 310 317 319 316 313 310 305 300 302 311 315 312 309 309 312 317 319 318 318 318 318 318 318 317 315 313 311 308 308 309 309 308 307 305 304
226 174 153 217 240 271 268 255 249 257 256 236 228 239 249 255 253 235 230 244 252 248 246 255 269 277 275 270 276 284 289 297 303 306 310 311 310 312 312 310 310 313 317 318 317 316 315 313 309 307 307 312 318 319 316 313 311 305 300 305 315 315 309 305 308 315 318 318 319 320 320 319 319 319 318 317 315 312 309 309 309 309 308 307 305 303
258 153 174 223 233 299 273 250 228 240 251 252 248 249 253 255 249 230 225 239 244 242 241 243 260 274 269 258 270 284 290 299 307 310 313 313 310 311 311 309 312 318 319 318 317 316 317 315 310 308 309 313 319 319 315 313 312 306 303 311 317 314 307 304 311 316 318 320 322 322 320 319 318 317 318 318 316 314 312 310 310 309 307 305 303 303
201 156 195 220 204 218 255 267 265 258 258 259 260 260 255 251 245 233 228 238 241 238 237 241 249 260 263 265 273 283 290 299 305 306 312 311 306 309 309 309 313 317 317 318 318 317 316 314 310 309 311 315 318 317 313 313 312 307 310 318 319 316 312 310 313 317 318 322 324 322 320 319 317 316 317 317 316 315 313 312 311 308 305 303 301 300
133 158 187 208 222 249 270 275 275 277 276 262 248 250 253 249 243 235 229 231 236 240 242 240 234 233 249 270 277 279 285 291 295 299 302 302 303 307 308 308 311 313 316 319 319 316 315 313 310 309 312 315 317 314 312 312 310 309 316 320 319 322 320 313 312 319 322 324 325 322 320 319 318 318 319 317 316 315 312 311 312 309 307 305 303 300
146 200 190 156 253 260 262 256 246 265 281 269 247 243 244 239 236 236 235 234 237 240 242 244 237 232 240 253 259 263 273 277 285 291 289 290 301 306 304 304 308 312 316 318 316 314 314 312 309 309 312 315 316 313 311 311 310 313 317 317 317 321 317 309 312 323 325 325 325 322 321 320 319 320 320 316 315 316 315 314 314 311 307 306 306 305
194 208 182 181 227 244 253 250 220 210 261 271 265 245 231 222 219 231 239 241 241 238 233 239 250 252 248 246 242 242 254 271 281 286 285 293 302 303 299 300 306 311 314 315 314 313 313 311 309 309 312 315 315 312 311 310 311 314 315 315 318 319 313 307 317 325 324 325 325 322 319 320 321 322 320 317 315 317 317 317 317 317 314 310 310 310